Regional Weather Roundup
Issued by NWS Northern Indiana

Home | Current Version | Previous Version | Graphics & Text | Print | Product List | Glossary On
Versions: 1 2 3 4 5 6 7 8 9 10 11 12 13 14 15 16 17 18 19 20 21 22 23 24 25 26 27 28 29 30 31 32 33 34 35 36 37 38 39 40 41 42 43 44 45 46 47 48 49 50
000
ASUS43 KIWX 240210
RWRIWX

KIWX WEATHER ROUNDUP
NATIONAL WEATHER SERVICE NORTHERN INDIANA
1000 PM EDT MON MAY 23 2016

NOTE: "FAIR" INDICATES FEW OR NO CLOUDS BELOW 12,000 FEET WITH NO
SIGNIFICANT WEATHER AND/OR OBSTRUCTIONS TO VISIBILITY.

* THESE STATIONS ARE NOT UNDER NWS QUALITY CONTROL. THEY ALSO MAY NOT
  REPORT WEATHER SUCH AS PRECIPITATION OR FOG.

INZ001>027-240300-
NORTHERN INDIANA

CITY           SKY/WX    TMP DP  RH WIND       PRES   REMARKS
GARY*          MOCLDY    61  55  82 SE6       29.93S
VALPARAISO     CLEAR     70  35  27 SE7       29.95F
MICHIGAN CITY* CLEAR     64  39  39 CALM      29.96S
LAPORTE*       CLEAR     67  38  34 SE3       29.97R
KNOX*          CLEAR     63  30  29 SE6       29.96S
SOUTH BEND     CLEAR     67  36  31 SE6       29.98R
GOSHEN         CLEAR     60  35  39 SE8       29.99R
MONTICELLO*    CLEAR     67  35  29 SE3       29.96S
LOGANSPORT*    CLEAR     63  43  48 SE6       29.99S
ROCHESTER*     CLEAR     63  46  55 SE3       29.99S
WARSAW*        CLEAR     59  41  51 CALM      30.00S
ANGOLA*        CLEAR     55  45  67 CALM      30.01R
FORT WAYNE     CLEAR     63  45  51 CALM      30.01R
HUNTINGTON*    CLEAR     60  40  47 CALM      30.00R
PERU/GRISSOM   CLEAR     66  39  37 SE3       29.98S
MARION*        CLEAR     65  38  37 CALM      30.01R

$$
INZ028>050-240300-
CENTRAL INDIANA

CITY           SKY/WX    TMP DP  RH WIND       PRES   REMARKS
LAFAYETTE      CLEAR     68  44  42 CALM      29.96S
KOKOMO*        CLEAR     61  41  48 S5        29.99S
MUNCIE*        CLEAR     68  42  38 S3        30.01R
INDIANAPOLIS   PTCLDY    67  39  35 S7        29.99S

$$
MIZ043>046-050>051-056>058-064>065-071>073-077>080-240300-
SOUTHWEST LOWER MICHIGAN

CITY           SKY/WX    TMP DP  RH WIND       PRES   REMARKS
BATTLE CREEK   CLEAR     60  38  43 S3        30.00R
BENTON HARBOR  CLEAR     57  46  66 E5        29.96R
COLDWATER*     CLEAR     58  38  46 CALM      30.01R
HILLSDALE*     CLEAR     59  39  47 CALM      30.02R
HOLLAND        CLEAR     60  49  66 E3        29.96S
GRAND RAPIDS   PTCLDY    70  42  36 W3        29.98R
KALAMAZOO      CLEAR     65  36  34 S3        30.00R
STURGIS*       CLEAR     62  38  41 CALM      30.00R
THREE RIVERS*  FAIR      64  38  37 CALM      30.00R

$$
OHZ001>008-015>018-024>025-240300-
NORTHWEST OHIO

CITY           SKY/WX    TMP DP  RH WIND       PRES   REMARKS
WAUSEON*         N/A     64  48  55 CALM      30.01R
FINDLAY        CLEAR     65  44  46 S5        30.00R
TOLEDO EXPRESS CLEAR     61  46  57 SE3       30.01R
TOLEDO METCALF CLEAR     63  48  58 SE6       30.01R
LIMA           CLEAR     63  47  55 E5        30.01R

$$
AND FOR LAKE MICHIGAN COASTAL AND OPEN LAKE BUOY OBSERVATIONS

STATION/POSITION TEMP    WIND        PRES    VSBY  WAVE
                 AIR SEA DIR/SP/G                  HT/PER
                 (F)     (DEG/KT/KT) (MB)    (MI)  (FT/S)
CALUMET HARBOR    64                   N/A
MICHIGAN CITY     64      50/  4/  4   N/A
BURNS HARBOR      61      80/  5/ 13 1014.2S
SAINT JOSEPH      67      CALM  /  3 1014.6F
SOUTH LAKE BUOY   58 51  130/ 10/ 10 1013.0F         0
4 MI NW BRIDGMAN  65 61  110/  6/  6   N/A           0
MICHIGAN CITY     62 58  100/  6/  8   N/A           0

$$
&&



USA.gov is the U.S. government's official web portal to all federal, state and local government web resources and services.